This is the latest recevied weather packets stored in our database for station/object K8DJB-1. If no packets are shown the sender has not sent any weather packets the latest 10 day(s).
| Time | Temp. | Humidity | Pressure | Rain* | Wind** | Luminosity | Snow |
|---|---|---|---|---|---|---|---|
| 1788561655 | 25.56° C | 78% | 1013 hPa | 0 mm | - | 1714 W/m² | - |
| 1788561613 | 25.56° C | 78% | 1013 hPa | 0 mm | - | 1714 W/m² | - |
| 1788561012 | 25.56° C | 77% | 1012.8 hPa | 0 mm | - | 1714 W/m² | - |
| 1788560713 | 25.56° C | 77% | 1012.8 hPa | 0 mm | - | 1712 W/m² | - |
| 1788560413 | 25.56° C | 76% | 1012.8 hPa | 0 mm | - | 1710 W/m² | - |
| 1788560113 | 26.11° C | 77% | 1012.8 hPa | 0 mm | - | 1710 W/m² | - |
| 1788559813 | 26.11° C | 76% | 1012.9 hPa | 0 mm | - | 1709 W/m² | - |
| 1788559514 | 26.11° C | 73% | 1012.9 hPa | 0 mm | - | 1707 W/m² | - |
| 1788559213 | 26.11° C | 73% | 1012.9 hPa | 0 mm | - | 1703 W/m² | - |
| 1788558913 | 26.67° C | 73% | 1012.7 hPa | 0 mm | - | 1702 W/m² | - |
| 1788558613 | 26.67° C | 75% | 1012.6 hPa | 0 mm | - | 1702 W/m² | - |
| 1788558313 | 26.11° C | 75% | 1012.6 hPa | 0 mm | - | 1703 W/m² | - |
| 1788558013 | 26.11° C | 75% | 1012.6 hPa | 0 mm | - | 1705 W/m² | - |
| 1788557413 | 25.56° C | 75% | 1012.6 hPa | 0 mm | - | 1709 W/m² | - |
| 1788557113 | 25.56° C | 76% | 1012.6 hPa | 0 mm | - | 1709 W/m² | - |
| 1788556813 | 25.56° C | 76% | 1012.7 hPa | 0 mm | - | 1710 W/m² | - |
| 1788556513 | 25.56° C | 78% | 1012.8 hPa | 0 mm | - | 1710 W/m² | - |
| 1788556213 | 25.56° C | 76% | 1012.8 hPa | 0 mm | - | 1710 W/m² | - |
| 1788555914 | 25.56° C | 78% | 1012.7 hPa | 0 mm | - | 1710 W/m² | - |
| 1788555613 | 25.56° C | 78% | 1012.7 hPa | 0 mm | - | 1709 W/m² | - |
| 1788555313 | 25° C | 79% | 1012.6 hPa | 0 mm | - | 1709 W/m² | - |
| 1788555013 | 25° C | 78% | 1012.5 hPa | 0 mm | - | 1709 W/m² | - |
| 1788554713 | 25° C | 76% | 1012.8 hPa | 0 mm | - | 1709 W/m² | - |
| 1788554413 | 25° C | 78% | 1012.9 hPa | 0 mm | - | 1709 W/m² | - |
| 1788554114 | 25° C | 76% | 1012.9 hPa | 0 mm | - | 1707 W/m² | - |
* Rain latest hour (hover to see other rain measurements)
** Current wind speed in m/s (hover to see current wind gust speed)